[Iaude] MPEC S110: 2023 SC2 [a=2.05,e=0.66,i=4.4,H=29.3]

mpec at marsden.cfa.harvard.edu mpec at marsden.cfa.harvard.edu
Wed Sep 20 07:26:18 EDT 2023


M.P.E.C. 2023-S110                           Issued 2023 September 20, 11:23 UT

     The Minor Planet Electronic Circulars contain information on unusual
         minor planets, routine data on comets and natural satellites,
         and occasional editorial announcements.  They are published
    on behalf of Division F of the International Astronomical Union by the
          Minor Planet Center, Smithsonian Astrophysical Observatory,
                          Cambridge, MA 02138, U.S.A.
			  
             Prepared using the Tamkin Foundation Computer Network

                              MPC at CFA.HARVARD.EDU
            URL https://www.minorplanetcenter.net/    ISSN 1523-6714

                                    2023 SC2                                    


Observations:
     K23S02C*1C2023 09 19.26540000 12 43.200+02 24 09.68         19.25GVES110G96
     K23S02C 1C2023 09 19.27060300 12 45.050+02 19 47.86         18.61GVES110G96
     K23S02C 1C2023 09 19.27581600 12 46.818+02 15 28.22         18.81GVES110G96
     K23S02C mC2023 09 19.29384700 12 52.614+02 01 08.44         19.01GVES110I52
     K23S02C mC2023 09 19.29404000 12 52.675+02 00 59.29         18.98GVES110I52
     K23S02C mC2023 09 19.29423600 12 52.722+02 00 50.22         18.99GVES110I52
     K23S02C mC2023 09 19.42693600 13 28.729+00 34 32.56         18.98GVES110I52
     K23S02C mC2023 09 19.42711900 13 28.780+00 34 26.65         19.20GVES110I52
     K23S02C mC2023 09 19.42730100 13 28.844+00 34 20.75         19.37GVES110I52
     K23S02C mC2023 09 19.42748600 13 28.880+00 34 14.74         19.61GVES110I52
     K23S02C KB2023 09 19.88430000 17 00.75 -02 06 57.8          20.6 GVES110I93
     K23S02C KB2023 09 19.89092200 17 01.20 -02 08 26.3          20.2 GVES110I93
     K23S02C 1C2023 09 19.94472 00 16 56.64 -02 20 38.3          21.0 VXES110033
     K23S02C 1C2023 09 19.94558 00 16 56.66 -02 20 48.7          20.6 VXES110033
     K23S02C 1C2023 09 19.94645 00 16 56.67 -02 20 59.4          20.4 VXES110033
     K23S02C KC2023 09 20.23005400 17 50.43 -03 06 28.5          20.3 GXES110858
     K23S02C KC2023 09 20.23732000 17 50.20 -03 07 30.0          20.2 GXES110858
     K23S02C KC2023 09 20.24585300 17 49.94 -03 08 40.0          20.5 GXES110858
     K23S02C KC2023 09 20.37608900 17 46.025-03 24 43.74         21.10GVES110V06
     K23S02C KC2023 09 20.37701500 17 45.996-03 24 50.08         21.06GVES110V06
     K23S02C KC2023 09 20.37793600 17 45.956-03 24 56.30         20.86GVES110V06
     K23S02C KC2023 09 20.37886000 17 45.924-03 25 02.68         20.98GVES110V06

Observer details:
033 Karl Schwarzschild Observatory, Tautenburg.  Observers S. Melnikov, C.
    Hogner, F. Ludwig, M. Hartmann, B. Stecklum.  Measurer B. Stecklum.
    1.34-m f/3 Schmidt + CCD.
858 Tebbutt Observatory, Edgewood.  Observer F. B. Zoltowski.  0.51-m f/8.1
    Schmidt-Cassegrain + CCD.
G96 Mt. Lemmon Survey.  Observer J. K. Hogan.  Measurers E. J. Christensen, D.
    Fay, J. B. Fazekas, D. C. Fuls, A. R. Gibbs, A. D. Grauer, H. Groeller, J.
    K. Hogan, R. A. Kowalski, S. M. Larson, G. J. Leonard, D. Rankin, R. L.
    Seaman, A. Serrano, F. C. Shelly, K. W. Wierzchos.  1.5-m reflector + 10K
    CCD.
I52 Steward Observatory, Mt. Lemmon Station.  Observer K. W. Wierzchos.
    Measurers E. J. Christensen, D. Fay, J. B. Fazekas, D. C. Fuls, A. R.
    Gibbs, A. D. Grauer, H. Groeller, J. K. Hogan, R. A. Kowalski, S. M.
    Larson, G. J. Leonard, D. Rankin, R. L. Seaman, A. Serrano, F. C. Shelly,
    K. W. Wierzchos.  1.0-m prime focus + CCD.
I93 St Pardon de Conques.  Observer F. Losse.  0.40-m f/3.7 reflector + CMO.
V06 Catalina Sky Survey-Kuiper.  Observer K. W. Wierzchos.  Measurers E. J.
    Christensen, D. Fay, J. B. Fazekas, D. C. Fuls, A. R. Gibbs, A. D. Grauer,
    H. Groeller, J. K. Hogan, R. A. Kowalski, S. M. Larson, G. J. Leonard, D.
    Rankin, R. L. Seaman, A. Serrano, F. C. Shelly, K. W. Wierzchos.  1.55-m
    reflector + 1K CCD.

Orbital elements:
2023 SC2                                                 Earth MOID = 0.0011 AU
Epoch 2023 Sept. 13.0 TT = JDT 2460200.5                Veres                   
M  13.47780              (2000.0)            P               Q                  
n   0.33588827     Peri.  103.29476     +0.16132694     +0.98688641             
a   2.0496175      Node   175.97754     -0.93251706     +0.15421611             
e   0.6564886      Incl.    4.39079     -0.32308753     +0.04767193             
P   2.93           H   29.30          G   0.15           U   7                  
Residuals in seconds of arc
230919 G96 (0.2-  2.0+)   230919 I52  0.2+  0.0     230920 858  0.1-  0.6-
230919 G96  0.2+  1.1+    230919 I52  0.0   0.0     230920 858  0.4+  0.3-
230919 G96  0.0   1.1-    230919 I93  0.4-  0.4+    230920 V06  0.1-  0.1-
230919 I52  0.0   0.0     230919 I93  0.0   0.3+    230920 V06  0.0   0.1-
230919 I52  0.0   0.2-    230919 033  0.1+  0.1+    230920 V06  0.0   0.1+
230919 I52  0.2-  0.1-    230919 033  0.1-  0.2+    230920 V06  0.1+  0.1+
230919 I52  0.0   0.1-    230919 033  0.3-  0.0
230919 I52  0.0   0.1-    230920 858  0.0   0.5+

Ephemeris:
2023 SC2                 a,e,i = 2.05, 0.66, 4                   q = 0.7041
Date    TT    R. A. (2000) Decl.     Delta      r    Elong.  Phase     V
2023 08 21    12 08 36.7 +06 29 48   0.3255  0.7583    32.6   134.0    32.4
...
2023 09 05    12 19 12.2 +06 27 41   0.1467  0.8735    21.4   155.1    34.4
...
2023 09 13    12 21 22.8 +07 08 50   0.05970 0.9489    15.1   164.0
...
2023 09 19    00 06 15.6 +08 52 19   0.0042041.0089   167.9    12.0    18.2
2023 09 20    00 17 00.6 -02 23 16   0.01469 1.0191   172.4     7.4    20.7
2023 09 21    00 18 46.6 -04 14 50   0.02527 1.0293   172.3     7.5    21.9
...
2023 09 27    00 20 26.2 -06 02 07   0.08936 1.0912   172.4     7.0    24.8
...
2023 10 05    00 20 43.4 -06 11 56   0.1774  1.1745   168.2    10.0    26.5
...
2023 10 20    00 22 39.2 -05 35 50   0.3571  1.3299   155.9    17.8    28.6

M. P. C. Staff               (C) Copyright 2023 MPC           M.P.E.C. 2023-S110





More information about the Iaude mailing list